Location: Home
(42.5358°N, 72.7383°W)
Time: 20:21:48
(UTC-05:00)

Explorer 7 - Pass Details

Date: 29 November 2021
Orbit: 483 x 674 km, 50.3° (Epoch: 23 January)

Event Time Altitude Azimuth Distance (km) Brightness Sun altitude
Rises 09:43:02 0° 284° (WNW) 2,674 9.9 20.5°
Reaches altitude 10° 09:45:34 10° 297° (WNW) 1,753 9.0 20.7°
Maximum altitude 09:48:55 26° 355° (N) 1,032 7.9 21.0°
Drops below altitude 10° 09:52:10 10° 53° (NE) 1,690 9.3 21.3°
Sets 09:54:34 0° 67° (ENE) 2,557 10.3 21.5°
